Albany, NY

2:22 PM EST on December 15, 2019 (GMT -0500)
Albany International

Weather History for KALB - August, 2019

Change the Weather History Date:

Saturday, August 10, 2019

  Actual Average Record
Temperature  
Mean Temperature 67 °F 71 °F  
Max Temperature 76 °F 81 °F 96 °F (1949)
Min Temperature 57 °F 61 °F 48 °F (1948)
Degree Days  
Heating Degree Days 0 0  
Month to date heating degree days 0 0  
Since 1 June heating degree days 27 57  
Since 1 July heating degree days 0 5  
Cooling Degree Days 2 6  
Month to date cooling degree days 81 69  
Year to date cooling degree days 587 435  
Since 1 June cooling degree days 565 405  
Growing Degree Days 16 (Base 50)    
Moisture  
Dew Point 54 °F    
Average Humidity 63    
Maximum Humidity 87    
Minimum Humidity 38    
Precipitation  
Precipitation 0.04 in 0.12 in 1.94 in (1953)
Month to date precipitation 1.66 1.25  
Year to date precipitation 26.52 23.94  
Sea Level Pressure  
Sea Level Pressure 29.83 in    
Wind  
Wind Speed 8 mph (WNW)    
Max Wind Speed 26 mph    
Max Gust Speed 32 mph    
Visibility 10 miles    
Events Rain    
T = Trace of Precipitation, MM = Missing Value Source: NWS Daily Summary

Daily Weather History Graph

Daily Weather History Graph

Search for Another Location

Airport or City:

Astronomy

Aug. 10, 2019 Rise Set
Actual Time 5:55 AM EDT 8:04 PM EDT
Civil Twilight 5:24 AM EDT 8:35 PM EDT
Nautical Twilight 4:46 AM EDT 9:13 PM EDT
Astronomical Twilight 4:04 AM EDT 9:55 PM EDT
Moon 4:47 PM EDT (8/10) 1:28 AM EDT (8/10)
Length of Visible Light 15h 10m
Length of Day
14h 08m
Waxing Gibbous, 79% of the Moon is Illuminated
Aug 10
Waxing Gibbous
Aug 15
Full
Aug 23
Last Quarter
Aug 30
New
Sep 5
First Quarter

Hourly Weather History & Observations

Time (EDT) Temp. Dew Point Humidity Pressure Visibility Wind Dir Wind Speed Gust Speed Precip Events Conditions
12:51 AM 64.0 °F 54.0 °F 70% 29.78 in 10.0 mi West 4.6 mph - N/A   Mostly Cloudy
1:51 AM 62.1 °F 54.0 °F 75% 29.78 in 10.0 mi West 5.8 mph - N/A   Mostly Cloudy
2:51 AM 63.0 °F 54.0 °F 72% 29.78 in 10.0 mi West 6.9 mph - 0.00 in   Mostly Cloudy
3:51 AM 60.1 °F 54.0 °F 80% 29.78 in 10.0 mi WNW 3.5 mph - N/A   Partly Cloudy
4:51 AM 59.0 °F 54.0 °F 83% 29.78 in 10.0 mi Calm Calm - N/A   Partly Cloudy
5:51 AM 57.9 °F 53.1 °F 84% 29.79 in 10.0 mi Calm Calm - N/A   Partly Cloudy
6:51 AM 59.0 °F 54.0 °F 83% 29.80 in 10.0 mi Calm Calm - N/A   Partly Cloudy
7:51 AM 64.9 °F 55.0 °F 70% 29.81 in 10.0 mi WNW 4.6 mph - N/A   Scattered Clouds
8:51 AM 66.0 °F 55.0 °F 68% 29.81 in 10.0 mi WNW 6.9 mph - N/A   Mostly Cloudy
9:51 AM 70.0 °F 57.0 °F 63% 29.81 in 10.0 mi West 16.1 mph - N/A   Mostly Cloudy
10:51 AM 70.0 °F 57.0 °F 63% 29.81 in 10.0 mi West 12.7 mph - N/A   Mostly Cloudy
11:51 AM 73.9 °F 55.9 °F 53% 29.81 in 10.0 mi West 15.0 mph - N/A   Mostly Cloudy
12:51 PM 73.0 °F 53.1 °F 49% 29.80 in 10.0 mi WNW 16.1 mph - N/A   Mostly Cloudy
1:51 PM 73.0 °F 51.1 °F 46% 29.81 in 10.0 mi WNW 16.1 mph 27.6 mph N/A   Mostly Cloudy
2:51 PM 75.0 °F 50.0 °F 41% 29.80 in 10.0 mi NW 19.6 mph 26.5 mph N/A   Mostly Cloudy
3:51 PM 75.0 °F 48.9 °F 40% 29.81 in 10.0 mi NNW 16.1 mph 27.6 mph N/A   Scattered Clouds
4:51 PM 73.9 °F 48.0 °F 40% 29.81 in 10.0 mi WNW 16.1 mph 23.0 mph N/A   Scattered Clouds
5:51 PM 72.0 °F 48.0 °F 43% 29.83 in 10.0 mi WNW 13.8 mph - N/A   Mostly Cloudy
6:51 PM 64.0 °F 55.0 °F 73% 29.87 in 10.0 mi WNW 11.5 mph - 0.04 in Rain Light Rain
7:51 PM 64.9 °F 55.0 °F 70% 29.89 in 10.0 mi NW 9.2 mph - 0.00 in   Mostly Cloudy
8:51 PM 63.0 °F 55.0 °F 75% 29.90 in 10.0 mi Calm Calm - N/A   Mostly Cloudy
9:51 PM 63.0 °F 55.0 °F 75% 29.91 in 10.0 mi Calm Calm - N/A   Partly Cloudy
10:51 PM 59.0 °F 55.0 °F 87% 29.92 in 10.0 mi Calm Calm - N/A   Scattered Clouds
11:51 PM 59.0 °F 55.0 °F 87% 29.94 in 10.0 mi SE 3.5 mph - N/A   Scattered Clouds